Regional Weather Roundup
Issued by NWS

Home | Current Version | Previous Version | Text Only | Print | Product List | Glossary Off
Versions: 1 2 3 4 5 6 7 8 9 10 11 12 13 14 15 16 17 18 19 20 21 22 23 24 25 26 27 28 29 30 31 32 33 34 35 36 37 38 39 40 41 42 43 44 45 46 47 48 49 50

000
ASUS43 KLSX 231810
RWRMO

WEATHER SUMMARY FOR MISSOURI
NATIONAL WEATHER SERVICE SPRINGFIELD MO
100 PM CDT THU MAR 23 2017

NOTE: "FAIR" INDICATES FEW OR NO CLOUDS BELOW 12,000 FEET WITH NO
       SIGNIFICANT WEATHER AND/OR OBSTRUCTIONS TO VISIBILITY.
       CURRENT SKY AND/OR WEATHER CONDITIONS ARE NOT AVAILABLE FOR
       CHILLICOTHE AND FARMINGTON.

MOZ001>031-035>038-043-044-053-054-231900-
...NORTHERN AND WESTERN MISSOURI...

CITY           SKY/WX    TMP DP  RH WIND       PRES   REMARKS
KANSAS CTY INT PTSUNNY   70  48  45 S21       29.95F
6HR MIN TEMP:  51; 6HR MAX TEMP:  70;

KANSAS C DTWN  SUNNY     71  48  43 S15G23    29.95F
6HR MIN TEMP:  54; 6HR MAX TEMP:  71;

LEE`S SUMMIT   PTSUNNY   69  50  50 S18G28    29.98F
6HR MIN TEMP:  52; 6HR MAX TEMP:  69;

ST JOSEPH      SUNNY     68  47  46 S18G28    29.91F
6HR MIN TEMP:  49; 6HR MAX TEMP:  71;

CHILLICOTHE      N/A     62  35  36 SE16G24   30.02F
6HR MIN TEMP:  43; 6HR MAX TEMP:  63; 6HR PCP:  0.02;

KIRKSVILLE     MOSUNNY   52  35  52 SE18G26   30.08F
6HR MIN TEMP:  39; 6HR MAX TEMP:  52; 6HR PCP:  0.02;


$$
MOZ066>068-077>081-088>096-101>105-231900-
...SOUTHWEST MISSOURI...

CITY           SKY/WX    TMP DP  RH WIND       PRES   REMARKS
SPRINGFIELD    SUNNY     68  48  48 S18G24    30.09F
6HR MIN TEMP:  47; 6HR MAX TEMP:  68;

JOPLIN         SUNNY     74  50  42 S16G25    30.04F
6HR MIN TEMP:  51; 6HR MAX TEMP:  74;

BRANSON        SUNNY     68  48  49 S10G17    30.14F

$$
MOZ032>034-039>042-045>050-055>058-069>072-231900-
...CENTRAL MISSOURI...

CITY           SKY/WX    TMP DP  RH WIND       PRES   REMARKS
COLUMBIA       SUNNY     65  36  34 SE15      30.09F
6HR MIN TEMP:  42; 6HR MAX TEMP:  65;

JEFFERSON CITY MOSUNNY   69  37  30 SE13G20   30.09F
6HR MIN TEMP:  47; 6HR MAX TEMP:  69;

ROLLA          SUNNY     68  42  38 S20G28    30.11F
6HR MIN TEMP:  46; 6HR MAX TEMP:  68;

SEDALIA        SUNNY     73  48  41 S16G28    30.05F
6HR MIN TEMP:  51; 6HR MAX TEMP:  73;

WHITEMAN AFB   MOSUNNY   71  47  42 S15G23    30.01F
WARRENSBURG    SUNNY     70  45  40 S15       30.01F
OSAGE BEACH      N/A    N/A N/A N/A S15G21    30.09F

$$
MOZ051-052-059>065-231900-
...EAST CENTRAL MISSOURI...

CITY           SKY/WX    TMP DP  RH WIND       PRES   REMARKS
ST LOUIS INTL  CLOUDY    46  38  73 SE17      30.22F
6HR MIN TEMP:  39; 6HR MAX TEMP:  46; 6HR PCP:  0.08;

SPIRIT OF STL  CLOUDY    44  36  73 SE10G21   30.21F
6HR MIN TEMP:  38; 6HR MAX TEMP:  44; 6HR PCP:  0.03;

ST CHARLES     CLOUDY    41  38  89 SE13      30.22F
6HR MIN TEMP:  37; 6HR MAX TEMP:  41; 6HR PCP:  0.07;


$$
MOZ072>076-082>087-097>100-106>115-231900-
...SOUTH CENTRAL AND SOUTHEAST MISSOURI...

CITY           SKY/WX    TMP DP  RH WIND       PRES   REMARKS
CAPE GIRARDEAU SUNNY     53  33  46 S7        30.27F
6HR MIN TEMP:  42; 6HR MAX TEMP:  53;

FARMINGTON     SUNNY     59  31  34 SE15      30.21F
6HR MIN TEMP:  42; 6HR MAX TEMP:  59; 6HR PCP: TRACE;

POPLAR BLUFF   SUNNY     56  38  50 VRB6      30.24F
6HR MIN TEMP:  45; 6HR MAX TEMP:  56;

WEST PLAINS    SUNNY     65  41  41 S9        30.18F
6HR MIN TEMP:  44; 6HR MAX TEMP:  65;


$$




USA.gov is the U.S. government's official web portal to all federal, state and local government web resources and services.